This demonstration page uses our WeatherBlox Daily Observations layout. Learn more.

Left ArrowRight Arrow

Hourly Observations for September 25, 2022

Temp ( °F °C ) Dew Point ( °F °C ) Humidity (%) Winds ( mph kmh ) Pressure ( in mb ) Visibility ( mi km ) Precip ( " mm )
12:54 am 00:54 Clear 67 19.4 47 8.3 49 49 NW 6 9 29.99 1016 10 16 0.00 0.00
1:54 am 01:54 Clear 57 13.9 46 7.8 67 67 WNW 3 6 30.01 1016 10 16 0.00 0.00
2:54 am 02:54 Clear 60 15.6 47 8.3 62 62 W 5 7 30.03 1017 10 16 0.00 0.00
3:54 am 03:54 Clear 59 15 47 8.3 64 64 NNW 12 19 30.04 1017 10 16 0.00 0.00
4:54 am 04:54 Clear 58 14.4 46 7.8 65 65 NNW 8 13 30.06 1018 10 16 0.00 0.00
5:54 am 05:54 Clear 57 13.9 45 7.2 64 64 NW 7 11 30.08 1019 10 16 0.00 0.00
6:54 am 06:54 Clear 56 13.3 45 7.2 66 66 NW 8 13 30.11 1020 10 16 0.00 0.00
7:54 am 07:54 Sunny 57 13.9 44 6.7 62 62 NW 10 17 30.12 1020 10 16 0.00 0.00
8:54 am 08:54 Sunny 62 16.7 45 7.2 53 53 NNW 9 15 30.13 1020 10 16 0.00 0.00
9:54 am 09:54 Sunny 69 20.6 45 7.2 42 42 NNW 14 22 30.13 1020 10 16 0.00 0.00
10:54 am 10:54 Sunny 74 23.3 44 6.7 34 34 NW 16 26 30.14 1021 10 16 0.00 0.00
11:54 am 11:54 Sunny 76 24.4 39 3.9 26 26 NNW 21 33 30.14 1021 10 16 0.00 0.00
12:54 pm 12:54 Sunny 78 25.6 39 3.9 25 25 NW 22 35 30.12 1020 10 16 0.00 0.00
1:54 pm 13:54 Sunny 80 26.7 38 3.3 22 22 NNW 20 31 30.11 1020 10 16 0.00 0.00
2:54 pm 14:54 Sunny 79 26.1 38 3.3 23 23 NNW 23 37 30.08 1019 10 16 0.00 0.00
3:54 pm 15:54 Mostly Sunny 80 26.7 40 4.4 24 24 NNW 16 26 30.07 1018 10 16 0.00 0.00
4:54 pm 16:54 Sunny 80 26.7 39 3.9 23 23 NNW 25 41 30.05 1018 10 16 0.00 0.00
5:54 pm 17:54 Sunny 78 25.6 39 3.9 25 25 NNW 22 35 30.06 1018 10 16 0.00 0.00
6:54 pm 18:54 Sunny 76 24.4 38 3.3 25 25 NNW 14 22 30.06 1018 10 16 0.00 0.00
7:54 pm 19:54 Clear 71 21.7 39 3.9 31 31 NW 7 11 30.06 1018 10 16 0.00 0.00
8:54 pm 20:54 Clear 59 15 39 3.9 47 47 NNW 5 7 30.08 1019 10 16 0.00 0.00
9:54 pm 21:54 Clear 57 13.9 40 4.4 53 53 N 7 11 30.11 1020 10 16 0.00 0.00
10:54 pm 22:54 Clear 59 15 40 4.4 49 49 NNW 6 9 30.12 1020 10 16 0.00 0.00
11:54 pm 23:54 Clear 49 9.4 38 3.3 66 66 NNW 5 7 30.13 1020 10 16 0.00 0.00

Powered by AerisWeather